Location: Brno
(49.2000°N, 16.6330°E)
Time: 04:16:59
(UTC+02:00)

Vanguard 3 - Pass Details

Date: 31 July 2021
Orbit: 510 x 3260 km, 33.3° (Epoch: 16 September)

Event Time Altitude Azimuth Distance (km) Brightness Sun altitude
Rises 00:47:39 0° 275° (W) 7,159 12.1 -22.5°
Reaches altitude 10° 00:53:31 10° 265° (W) 6,201 11.6 -22.5°
Maximum altitude 01:08:04 27° 218° (SW) 4,565 10.5 -22.5°
Enters shadow 01:11:17 26° 203° (SSW) 4,494 10.3 -22.5°
Drops below altitude 10° 01:20:06 10° 168° (SSE) 5,066 - -22.4°
Sets 01:24:20 0° 157° (SSE) 5,686 - -22.3°
